Content
SEND FEEDBACK

Daily
Averages
Monthly
Summary
United States of America

DALLESPORT, WASHINGTON


Home > North America > United States > Washington
Elevation: 280 feet     Latitude: 45 37N     Longitude: 121 09W

WEATHER
 
SELECT A DAY
Number of Records: 164,484;   Date Range: 1/1/95 - 8/30/14
 
SHARE

PRINT THIS DATA

[ ← Previous Day ]
WEATHER ALMANAC - JANUARY 31, 2013
[ Next Day → ]
[ °C ]   °F
Weather ElementAverageHighLow
Temperature48.5 °F55 °F (11:53 am)39 °F (11:53 pm)
Dewpoint38.8 °F41 °F (1:53 am)35.1 °F (11:53 pm)
Humidity69.8 %86 % (11:53 pm)55 % (11:53 am)
Barometer30.33 in30.37 in (8:53 am)30.29 in (3:53 pm)
Wind Speed10.7 mph25.3 mph (2:53 am)
Wind Gust29.9 mph (3:53 pm)
Weather ElementAverage
Visibility10 mi
Wind DirectionWSW (245 °)

Weather ElementTotal
Precipitation---
Heating Degree Days18 (Base 65)
Averaged from 22 records on January 31, 2013
WEATHER CONDITIONS BREAKOUT
WIND DIRECTION BREAKOUT
WEATHER BY HOUR - JANUARY 31, 2013
[ °C ]   °F
Local TimeTemperatureDewpointHumidityBarometerVisibilityWind DirectionWind SpeedGust SpeedPrecipitationEventsConditions
1:53 AM50.0 °F41.0 °F71 %30.36 in10.0 miNW (310°)10.4 mph19.6 mphClear
2:53 AM50.0 °F41.0 °F71 %30.34 in10.0 miNW (310°)25.3 mphClear
3:53 AM48.0 °F41.0 °F77 %30.34 in10.0 miNW (310°)16.1 mph24.2 mphClear
4:53 AM46.9 °F39.9 °F77 %30.35 in10.0 miNNW (330°)11.5 mphClear
5:53 AM48.0 °F39.0 °F71 %30.34 in10.0 miNorth (360°)5.8 mphClear
6:53 AM46.0 °F39.0 °F76 %30.34 in10.0 miVariable4.6 mphClear
7:53 AM46.0 °F37.9 °F73 %30.36 in10.0 miNNW (340°)6.9 mphClear
8:53 AM46.9 °F39.0 °F74 %30.37 in10.0 miCalmClear
9:53 AM50.0 °F39.9 °F68 %30.36 in10.0 miNNW (330°)9.2 mphClear
11:53 AM55.0 °F39.0 °F55 %30.34 in10.0 miWNW (300°)11.5 mphClear
12:53 PM54.0 °F39.0 °F57 %30.32 in10.0 miNNW (330°)15.0 mphClear
1:53 PM53.1 °F39.0 °F59 %30.30 in10.0 miNW (320°)12.7 mphMostly Cloudy
2:53 PM52.0 °F37.9 °F59 %30.30 in10.0 miNNW (330°)12.7 mphMostly Cloudy
3:53 PM53.1 °F37.9 °F57 %30.29 in10.0 miWNW (300°)23.0 mph29.9 mphClear
4:53 PM51.1 °F37.9 °F61 %30.30 in10.0 miWNW (300°)12.7 mphClear
5:53 PM48.9 °F39.0 °F69 %30.30 in10.0 miNW (320°)10.4 mphClear
6:53 PM48.0 °F39.0 °F71 %30.30 in10.0 miWNW (300°)15.0 mphClear
7:53 PM48.0 °F39.0 °F71 %30.30 in10.0 miWNW (300°)16.1 mphClear
8:53 PM43.0 °F37.9 °F82 %30.31 in10.0 miEast (80°)5.8 mphClear
9:53 PM48.0 °F39.0 °F71 %30.32 in10.0 miVariable3.5 mphClear
10:53 PM43.0 °F37.0 °F80 %30.32 in10.0 miSW (220°)6.9 mphClear
11:53 PM39.0 °F35.1 °F86 %30.33 in10.0 miCalmClear
Hourly data recorded from KDLS, located miles away from Dallesport, Washington







STORIES FROM OUR PARTNERS